Flag for Germany Weather past 2 weeks in Marburg, Hesse, Germany

Now
45 °F

Clear.


Feels Like: 45 °F
Forecast: 27 / 55 °F
Wind: 1 mph from West

Location: Giessen

Current Time: Apr 28, 2015 at 10:25:04 PM

Latest Report: Apr 28, 2015 at 10:00 PM


Visibility: 37 mi

Pressure: 30.15 "Hg

Humidity: 52%

Dew point: 29 °F

Location of MarburgLocation

Historic Weather in Marburg — Graph

°F

Marburg temperature yesterday

Maximum temperature yesterday: 56 °F (at 12:00 AM)
Minimum temperature yesterday: 44 °F (at 10:00 PM)
Average temperature yesterday: 51 °F

Past Weeks' High & Low Weather Summary

 TemperatureHumidityPressure
High74 °F (Apr 15, 5:00 PM)98% (Apr 26, 2:00 AM)30.47 "Hg (Apr 26, 2:00 AM)
Low31 °F (Apr 19, 6:00 AM)21% (Apr 21, 5:00 PM)29.57 "Hg (Apr 27, 6:00 AM)
Average52 °F64%30.08 "Hg
* Reported Apr 13 9:00 PM — Apr 28 9:00 PM, Marburg, Weather by CustomWeather, © 2015

Note: Actual official high and low records may vary slightly from our data, if they occured in-between our weather recording intervals... More about our weather records

Advertising

Marburg weather history for previous 24 hours

 ConditionsComfort  
Time TempWeatherWind HumidityBarometerVisibility
9:00 PM
Tue, Apr 28
47 °FClear.2 mph51%30.13 "Hg40 mi
8:00 PM50 °FSunny.5 mph50%30.10 "Hg34 mi
7:00 PM51 °FPartly sunny.5 mph50%30.08 "Hg43 mi
6:00 PM53 °FPartly sunny.8 mph49%30.05 "Hg25 mi
5:00 PM52 °FOvercast.7 mph50%30.03 "Hg37 mi
4:00 PM53 °FOvercast.7 mph49%30.01 "Hg31 mi
3:00 PM55 °FScattered clouds.7 mph48%30.01 "Hg16 mi
2:00 PM54 °FPartly sunny.7 mph49%30.00 "Hg34 mi
1:00 PM52 °FScattered clouds.7 mph49%29.99 "Hg16 mi
12:00 PM51 °FCool.6 mph49%29.98 "Hg19 mi
11:00 AM49 °FOvercast.8 mph49%29.96 "Hg17 mi
10:00 AM48 °FOvercast.5 mph67%29.95 "Hg28 mi
9:00 AM45 °FOvercast.3 mph73%29.94 "Hg25 mi
8:00 AM43 °FOvercast.2 mph80%29.92 "Hg22 mi
7:00 AM40 °FOvercast.3 mph86%29.88 "Hg18 mi
6:00 AM42 °FOvercast.3 mph84%29.86 "Hg18 mi
5:00 AM42 °FOvercast.5 mph84%29.84 "Hg16 mi
4:00 AM43 °FOvercast.3 mph84%29.83 "Hg22 mi
3:00 AM44 °FOvercast.6 mph82%29.80 "Hg25 mi
2:00 AM44 °FLow clouds.5 mph85%29.80 "Hg17 mi
1:00 AM44 °FLight rain. Overcast.6 mph86%29.78 "Hg14 mi
12:00 AM44 °FOvercast.7 mph84%29.77 "Hg19 mi
11:00 PM
Mon, Apr 27
44 °FOvercast.6 mph86%29.76 "Hg18 mi
10:00 PM44 °FOvercast.6 mph87%29.77 "Hg19 mi
Weather by CustomWeather, © 2015

See weather overviewHow to use our weather pages